Regional Weather Roundup
Issued by NWS

Home | Current Version | Previous Version | Text Only | Print | Product List | Glossary On
Versions: 1 2 3 4 5 6 7 8 9 10 11 12 13 14 15 16 17 18 19 20 21 22 23 24 25 26 27 28 29 30 31 32 33 34 35 36 37 38 39 40 41 42 43 44 45 46 47 48 49 50
000
ASUS44 KFWD 132015
RWRTX
NORTH TEXAS HOURLY WEATHER ROUNDUP
NATIONAL WEATHER SERVICE FORT WORTH TX
200 PM CST WED DEC 13 2017

NOTE: "FAIR" INDICATES FEW OR NO CLOUDS BELOW 12,000 FEET WITH NO
SIGNIFICANT WEATHER AND/OR OBSTRUCTIONS TO VISIBILITY.

TXZ118-119-132100-
DALLAS/FORT WORTH METROPLEX

CITY           SKY/WX    TMP DP  RH WIND       PRES   REMARKS
DFW AIRPORT    MOSUNNY   75  20  12 SW12      29.90F
DALLAS LOVE    MOSUNNY   74  22  14 W12G23    29.92F
FTW MEACHAM    SUNNY     75  22  13 SW16G22   29.91F
DAL-EXECUTIVE  SUNNY     72  23  16 W15G22    29.92F
FTW-ALLIANCE   MOSUNNY   75  21  13 SW13G20   29.91F
FTW-NAS-JRB    MOSUNNY   75  18  11 W13       29.92F
FTW-SPINKS     SUNNY     73  21  14 SW12G23   29.94F
ARLINGTON      SUNNY     74  21  13 SW10G24   29.92F
GRAND PRAIRIE  SUNNY     73  21  14 SW14G23   29.93
ADDISON        SUNNY     72  18  13 SW14G20   29.93F
MESQUITE       SUNNY     72  23  16 SW7       29.94F
LANCASTER      SUNNY     71  23  16 SW13G22   29.95F
$$

TXZ091>094-102>105-117-120-121-131>134-132100-
NORTH CENTRAL TEXAS

CITY           SKY/WX    TMP DP  RH WIND       PRES   REMARKS
SHRMAN/DENISON SUNNY     72  20  14 SW12G17   29.90F
GAINESVILLE    SUNNY     71  18  13 W13       29.92F
BOWIE          SUNNY     69  22  16 SW13G20   29.91F
BRIDGEPORT     SUNNY     72  22  15 SW10      29.93F
DECATUR        SUNNY     72  17  12 W12       29.90F
DENTON         SUNNY     74  22  14 W13       29.90F
MCKINNEY       SUNNY     70  22  16 SW14      29.92F
BONHAM         SUNNY     70  24  17 SW14      29.90F
GREENVILLE     SUNNY    N/A N/A N/A SW12      29.93F
ROCKWALL       SUNNY     70  26  19 SW8       29.93F
TERRELL        SUNNY     71  24  17 SW13      29.94F
WAXAHACHIE     SUNNY     71  30  21 SW15      29.95F
CLEBURNE       SUNNY     72  19  14 SW18G25   29.94F
GRANBURY       SUNNY     76  23  14 SW14G20   29.93F
$$

TXZ083>090-098>101-113>116-127>130-139>142-154-155-132100-
WESTERN NORTH TEXAS

CITY           SKY/WX    TMP DP  RH WIND       PRES   REMARKS
WICHITA FALLS  SUNNY     65  16  15 NW7       29.92F
WF-KICKAPOO    SUNNY     65  17  15 W5        29.94F
VERNON         SUNNY     67   1   7 NE9       29.93F
ABILENE        SUNNY     70  20  15 SW16G22   29.95F
ABILENE-DYESS  SUNNY     71  22  16 W13G20    29.94F
GRAHAM           N/A     73  23  15 W9G17     29.90F
BRECKENRIDGE   SUNNY     74  18  12 W16       29.92F
CISCO          SUNNY     70  18  13 SW17      29.96F
EASTLAND       SUNNY     71  19  13 W12       29.94F
RANGER         SUNNY     72  21  15 SW13G20   29.93F
MINERAL WELLS  SUNNY     74  15  10 W14       29.90F
STEPHENVILLE   SUNNY     73  19  13 W12       29.97F
COMANCHE       SUNNY     71  26  18 W17G23    29.96F
BROWNWOOD      SUNNY     72  19  14 SW15G23   29.96F
COLEMAN          N/A     69  26  19 SW14      29.97
$$

TXZ143>147-156>162-174-175-132100-
CENTRAL TEXAS

CITY           SKY/WX    TMP DP  RH WIND       PRES   REMARKS
WACO           SUNNY     68  29  23 S14       29.98F
WACO-TSTC      SUNNY     70  27  19 S15G23    29.97F
WACO-MCGREGOR  SUNNY     68  32  26 S12       29.98F
HILLSBORO      SUNNY     71  28  20 S13G20    29.94F
CORSICANA      SUNNY     66  28  24 SW17      29.97F
MEXIA          SUNNY     64  29  26 S12G26    29.98F
HEARNE         CLOUDY    59  32  35 S12       30.05F
CAMERON        SUNNY     61  32  33 S13G18    30.03F
TEMPLE         SUNNY     68  29  23 SW13      29.99F
KILLEEN        SUNNY     67  27  21 SW7       29.97F
KILLEEN-SKYLRK SUNNY     68  29  23 S13       29.99F
FORT HOOD      SUNNY     69  25  19 S9        29.95F
GATESVILLE     SUNNY     70  25  18 SW10      29.99F
HAMILTON       SUNNY     72  23  16 SW14      29.97F
LAMPASAS       SUNNY     67  28  23 SW7       29.98F
$$

TXZ095>097-106>112-122>126-135>138-148>153-164>167-132100-
EAST TEXAS

CITY           SKY/WX    TMP DP  RH WIND       PRES   REMARKS
PARIS          SUNNY     68  27  21 SW14      29.90F
SULPHUR SPRNGS SUNNY     68  25  20 SW14G23   29.94F
MOUNT PLEASANT SUNNY     68  28  22 SW13G20   29.95F
GILMER         SUNNY     64  28  25 S3        29.96F
MINEOLA        SUNNY     66  27  22 SW10G21   29.94F
TYLER          SUNNY     64  27  24 SW14G22   29.96F
LONGVIEW       SUNNY     65  31  28 S13       29.96F
MARSHALL       SUNNY     63  25  24 SW10G20   29.99F
ATHENS         SUNNY     63  27  25 SW8       29.96F
PALESTINE      SUNNY     63  30  28 S8        30.01F
JACKSONVILLE   SUNNY     61  30  31 S12       30.00F
HENDERSON      SUNNY     64  28  26 SW9G20    29.99F
CENTER         CLEAR     59  27  29 S10       30.02F
NACOGDOCHES    SUNNY     61  30  31 SW10      30.02F
LUFKIN         SUNNY     58  32  37 S10       30.03F
$$

SUPPLEMENTAL OBSERVATIONS (NWS FORT WORTH AREA)

CITY           SKY/WX    TMP DP  RH WIND       PRES   REMARKS
DENISON DAM      N/A     66  34  30 W10         N/A
PAT MAYSE LAKE   N/A     64  28  25 S12         N/A
GREENVILLE       N/A     70  23  17 SW17        N/A
CEDAR HILL       N/A     73  23  15 SW9G21      N/A
POSSUM KINGDOM   N/A     73  21  14 W12         N/A
GRANBURY         N/A     75  23  14 SW16G23     N/A
COMANCHE         N/A     73  23  15 SW14G24     N/A
TEMPLE           N/A     64  28  25 S14         N/A
LAKE LIMESTONE   N/A     64  30  27 S13         N/A
ATHENS           N/A     66  28  24 S9G17       N/A
$$

SUPPLEMENTAL OBSERVATIONS (NWS NORMAN AREA)

CITY           SKY/WX    TMP DP  RH WIND       PRES   REMARKS
GOODLETT         N/A     68  17  14 NE14G21   29.93F
ODELL            N/A     68  18  15 NE15      29.94F
CROWELL          N/A     67  19  15 NE9       29.94F
KNOX CITY        N/A     71  15  12 W8        29.94F
SEYMOUR          N/A     69  15  13 W7        29.93F
MILLERS CREEK    N/A     70  25  18 W14         N/A
$$

SUPPLEMENTAL OBSERVATIONS (NWS SAN ANGELO AREA)

CITY           SKY/WX    TMP DP  RH WIND       PRES   REMARKS
WEINERT          N/A     71  18  13 W7        29.93F
HASKELL          N/A     70  16  13 W13       29.93F
THROCKMORTON     N/A     69  25  19 W13       29.93F
STAMFORD         N/A     70  20  15 W12       29.95F
CLYDE            N/A     70  21  15 W14       29.96F
HAMBY            N/A     72  21  15 SW14        N/A
IVIE RESERVOIR   N/A     70  28  21 W16G23      N/A
COLORADO BEND    N/A     70  21  16 SW12        N/A
$$

SUPPLEMENTAL OBSERVATIONS (NWS SHREVEPORT AREA)

CITY           SKY/WX    TMP DP  RH WIND       PRES   REMARKS
TEXARKANA        N/A     68  27  21 SW8G17      N/A
LINDEN           N/A     66  28  24 SW7G15      N/A
CADDO LAKE       N/A     68  28  22 SW5G13      N/A
HENDERSON        N/A     64  28  25 SW15        N/A
LUFKIN           N/A     63  34  34 MISG        N/A
N SABINE NF      N/A     63  32  31 MISG        N/A
$$

SUPPLEMENTAL OBSERVATIONS ARE A COLLECTION OF AUTOMATED INSTRUMENTS
THAT ARE MAINTAINED BY A VARIETY OF FEDERAL AND STATE AGENCIES.
CERTAIN ELEMENTS...SUCH AS HUMIDITY VALUES AND SUSTAINED WIND
SPEEDS...MAY BE APPROXIMATED.





USA.gov is the U.S. government's official web portal to all federal, state and local government web resources and services.